Tracking 19832 objects as of 26-Aug-2019
HD Live streaming from Space Station
objects crossing your sky now

COSMOS 2251 DEB

Track COSMOS 2251 DEB now!
10-day predictions


NORAD ID: 34001
Int'l Code: 1993-036GL
Perigee: 769.3 km
Apogee: 797.7 km
Inclination: 74.0 °
Period: 100.4 minutes
Semi major axis: 7154 km
RCS: 0.041 m2 (small)
Launch date: June 16, 1993
Source: Commonwealth of Independent States (former USSR) (CIS)
Launch site: PLESETSK MISSILE AND SPACE COMPLEX (PKMTR)

Note: This is SATELLITE DEBRIS
aabbcc
Your satellite tracking list
Your tracking list is empty




NASA's NSSDC Master Catalog

Two Line Element Set (TLE):
1 34001U 93036GL  19236.97028237 +.00000088 +00000-0 +40398-4 0  9992
2 34001 074.0403 181.8030 0019873 110.5111 320.5333 14.34612577551210
Source of the keplerian elements: AFSPC